[[{"header":{"parameterUnit":"m.s-1","parameterCategory":1,"la1":30.2991,"la2":30.254,"lo1":-89.0895,"lo2":-89.0444,"dy":0.0017,"dx":0.0017,"nx":28,"ny":28,"refTime":"2025-11-14T09:00:00:Z","depth":0,"parameterNumber":2,"parameterNumberName":"U-component_of_WINDS"},"data":[0,0,0,0,0,0,0,0,0,0,0,0,0,0,0,0,0,0,0,0,0,0,0,0,0,0,0,0,0,0,0,0,0,0,0,0,0,0,0,0,0,0,0,0,0,0,0,0,0,0,0,0,0,0,0,0,0,0,0.034,0.0341,0,0.0368,0.0369,0.0369,0.0343,0.0342,0.0341,0.034,0.0369,0.0371,0.0373,0,0,0,0,0,0,0,0,0,0,0,0,0,0.0264,0.0265,0.034,0.0341,0.0341,0.0368,0.0369,0.0369,0.0343,0.0342,0.0341,0.034,0.0369,0.0371,0.0373,0,0,0,0,0,0,0,0,0,0,0,0,0,0.0295,0.0266,0.034,0.0331,0.0331,0.0368,0.0369,0.0369,0.0344,0.0342,0.034,0.0339,0.0368,0.0371,0.0373,0.0421,0,0,0.0381,0.0382,0,0,0,0,0,0,0,0,0.0293,0.0298,0.0332,0.0332,0.0331,0.0351,0.0352,0.0387,0.0344,0.0339,0.034,0.0338,0.0364,0.0367,0.0376,0.0422,0.0424,0.0381,0.0383,0.0384,0.0385,0,0,0,0,0,0,0,0.0291,0.0296,0.0351,0.0333,0.0332,0.0326,0.0329,0.0359,0.036,0.0339,0.0337,0.0341,0.0364,0.0373,0.0376,0.0424,0.0381,0.0384,0.0385,0.0386,0.0511,0.0513,0,0,0,0,0,0,0.029,0.0295,0.035,0.0352,0.0308,0.0328,0.0332,0.0346,0.036,0.036,0.0342,0.034,0.037,0.0373,0.0377,0.0435,0.0384,0.0387,0.0388,0.0509,0.0511,0.0513,0,0,0,0,0,0,0.0288,0.0295,0.0349,0.0323,0.0329,0.0331,0.0348,0.0347,0.0357,0.0362,0.0362,0.0352,0.0369,0.0374,0.041,0.0435,0.0388,0.039,0.0507,0.051,0.0512,0.055,0,0,0,0,0,0,0.0286,0.0295,0.0313,0.0324,0.0331,0.0382,0.035,0.0349,0.0362,0.0359,0.0371,0.0372,0.0368,0.0407,0.0413,0.0438,0.0392,0.0505,0.0508,0.0511,0.0546,0.0553,0.0559,0,0,0,0,0,0.0283,0.0322,0.0314,0.0321,0.0354,0.0384,0.0388,0.0382,0.0364,0.0382,0.0385,0.0371,0.0431,0.041,0.0417,0.0444,0.0503,0.0507,0.0511,0.0543,0.0552,0.0559,0,0,0,0,0,0,0.0315,0.0324,0.0315,0.0358,0.037,0.0379,0.0402,0.0392,0.0409,0.0406,0.0398,0.0401,0.044,0.0445,0.0422,0.0491,0.0464,0.047,0.0486,0.0494,0.0501,0.0499,0.0394,0,0,0,0,0,0.0327,0.035,0.0356,0.0394,0.0401,0.0401,0.0413,0.0408,0.042,0.0425,0.0431,0.0444,0.0465,0.048,0.05,0.0546,0.0549,0.0568,0.0574,0.0579,0.0585,0.061,0.0618,0.0526,0.0526,0.0526,0,0,0.0352,0.0359,0.0375,0.0401,0.041,0.0434,0.0405,0.0432,0.045,0.043,0.0465,0.0469,0.0483,0.0524,0.0543,0.053,0.061,0.0584,0.0588,0.0591,0.0615,0.0623,0.0631,0.0529,0.0528,0.0528,0,0,0.041,0.0418,0.0451,0.046,0.0474,0.0473,0.0481,0.0491,0.0494,0.0529,0.0514,0.0535,0.0572,0.0582,0.0592,0.0654,0.0642,0.066,0.0695,0.0719,0.0727,0.0733,0.0756,0.0764,0.0665,0.0665,0.0665,0,0.044,0.0476,0.0469,0.0497,0.0509,0.0491,0.0524,0.0533,0.0553,0.0561,0.0546,0.0592,0.06,0.0644,0.0659,0.0668,0.0677,0.066,0.0726,0.0733,0.0738,0.076,0.0768,0.0668,0.0667,0.0667,0.0667,0,0.0512,0.0538,0.0562,0.0582,0.0596,0.0627,0.0624,0.0639,0.0632,0.0633,0.0669,0.0677,0.0699,0.0709,0.0702,0.0752,0.0743,0.0727,0.0701,0.075,0.077,0.0778,0.0671,0.067,0.0669,0.0669,0,0,0.0593,0.0607,0.0617,0.0625,0.0638,0.0658,0.0687,0.0708,0.0722,0.0735,0.076,0.0792,0.0777,0.0788,0.0783,0.0804,0.0853,0.0785,0.0785,0.0798,0.0909,0.0922,0.0931,0.0844,0.0846,0.0847,0.0908,0,0.0653,0.0704,0.0698,0.0747,0.0771,0.0753,0.0779,0.0789,0.0791,0.0811,0.0812,0.0835,0.0813,0.082,0.084,0.0843,0.0875,0.0838,0.0868,0.0869,0.0866,0.0942,0.0956,0.1013,0.0915,0.0917,0.0918,0,0.073,0.0747,0.0798,0.0808,0.0817,0.084,0.0859,0.0878,0.089,0.0889,0.0902,0.0892,0.0921,0.0893,0.0933,0.0908,0.092,0.0923,0.0925,0.0928,0.0897,0.0949,0.1031,0.104,0.093,0.0929,0.0928,0,0.0785,0.082,0.0855,0.0863,0.0875,0.0892,0.0897,0.0907,0.092,0.0936,0.0944,0.0963,0.0974,0.0989,0.0985,0.0964,0.1026,0.0998,0.1027,0.1027,0.1042,0.1042,0.1129,0.1048,0.1047,0.1047,0.1047,0,0.0853,0.0886,0.088,0.0902,0.0938,0.093,0.0966,0.0969,0.0978,0.1,0.0985,0.1006,0.0999,0.1019,0.1016,0.105,0.1055,0.1055,0.1054,0.1058,0.1058,0.1066,0.1062,0.105,0.1049,0.1049,0.1048,0,0.0921,0.0919,0.0957,0.0964,0.0967,0.0993,0.1,0.102,0.102,0.1048,0.1054,0.1054,0.1077,0.1074,0.11,0.1097,0.114,0.1134,0.1137,0.1136,0.1166,0.1164,0.1263,0.1275,0.1185,0.1186,0.1186,0,0.0966,0.0991,0.1001,0.1015,0.1021,0.1044,0.1057,0.1049,0.1064,0.1078,0.1097,0.1119,0.1137,0.1175,0.1177,0.1197,0.1191,0.1224,0.1194,0.1196,0.1193,0.1192,0.1195,0.1231,0.1232,0.1233,0.1233,0,0.1045,0.1043,0.1062,0.1081,0.1097,0.1112,0.1125,0.1137,0.1131,0.1147,0.1171,0.1184,0.1211,0.1233,0.1251,0.1257,0.1244,0.1243,0.1251,0.1255,0.1256,0.1257,0.1155,0.1241,0.124,0.124,0.1239,0.1239,0.1104,0.1125,0.1136,0.1158,0.1166,0.1179,0.1199,0.1201,0.122,0.1241,0.1235,0.1262,0.1273,0.1296,0.1304,0.1324,0.1312,0.1324,0.1327,0.133,0.1334,0.1252,0.1328,0.1327,0.1327,0.1327,0.1327,0,0.1184,0.1189,0.1209,0.1228,0.1246,0.1231,0.1245,0.1261,0.1285,0.1295,0.1312,0.134,0.1361,0.1364,0.1384,0.14,0.1395,0.1406,0.1405,0.1407,0.1344,0.1335,0.141,0.141,0.141,0.141,0.141,0.141,0.1227,0.1262,0.1261,0.13,0.1305,0.1332,0.1341,0.1352,0.1361,0.1392,0.1409,0.1411,0.1419,0.1439,0.1458,0.1458,0.1467,0.148,0.1478,0.142,0.1411,0.1404,0.1396,0.1482,0.1482,0.154,0.1541,0.1541]},{"header":{"parameterUnit":"m.s-1","parameterCategory":1,"la1":30.2991,"la2":30.254,"lo1":-89.0895,"lo2":-89.0444,"dy":0.0017,"dx":0.0017,"nx":28,"ny":28,"refTime":"2025-11-14T09:00:00:Z","depth":0,"parameterNumber":3,"parameterNumberName":"V-component_of_WINDS"},"data":[0,0,0,0,0,0,0,0,0,0,0,0,0,0,0,0,0,0,0,0,0,0,0,0,0,0,0,0,0,0,0,0,0,0,0,0,0,0,0,0,0,0,0,0,0,0,0,0,0,0,0,0,0,0,0,0,0,0,0.6332,0.6333,0,0.6397,0.6398,0.6398,0.6386,0.6385,0.6384,0.6383,0.6452,0.6455,0.6458,0,0,0,0,0,0,0,0,0,0,0,0,0,0.6203,0.6205,0.6332,0.6333,0.6334,0.6397,0.6398,0.6398,0.6386,0.6385,0.6384,0.6382,0.6451,0.6454,0.6458,0,0,0,0,0,0,0,0,0,0,0,0,0,0.6263,0.6206,0.6332,0.6335,0.6336,0.6396,0.6398,0.6399,0.6387,0.6385,0.6383,0.6382,0.645,0.6454,0.6458,0.652,0,0,0.6472,0.6474,0,0,0,0,0,0,0,0,0.6259,0.6267,0.6334,0.6335,0.6336,0.6382,0.6377,0.644,0.6387,0.6368,0.6383,0.6381,0.643,0.6436,0.6452,0.6523,0.6526,0.6472,0.6475,0.6477,0.6478,0,0,0,0,0,0,0,0.6255,0.6264,0.6358,0.6335,0.6336,0.6335,0.6342,0.6389,0.6408,0.6369,0.6368,0.6376,0.643,0.6448,0.6454,0.6527,0.6472,0.6476,0.6479,0.648,0.6656,0.6658,0,0,0,0,0,0,0.6249,0.6261,0.6356,0.636,0.6293,0.6339,0.6346,0.6369,0.6407,0.6411,0.6378,0.6375,0.6441,0.6448,0.6456,0.6533,0.6477,0.6481,0.6483,0.6654,0.6656,0.6659,0,0,0,0,0,0,0.6247,0.6258,0.6353,0.631,0.6322,0.6343,0.6369,0.6371,0.6388,0.6414,0.6417,0.6392,0.644,0.645,0.6505,0.6535,0.6483,0.6487,0.6652,0.6655,0.6658,0.6686,0,0,0,0,0,0,0.6243,0.6257,0.6279,0.6311,0.6325,0.64,0.637,0.6374,0.6396,0.6393,0.6428,0.6432,0.6439,0.6498,0.6509,0.654,0.649,0.6649,0.6653,0.6657,0.6683,0.669,0.6696,0,0,0,0,0,0.6238,0.6285,0.6281,0.6292,0.6353,0.6401,0.6409,0.6416,0.6398,0.6422,0.6439,0.6431,0.653,0.6504,0.6516,0.6549,0.6647,0.6652,0.6656,0.668,0.6689,0.6696,0,0,0,0,0,0,0.6257,0.6289,0.6285,0.6343,0.6369,0.6399,0.6429,0.6425,0.6458,0.6455,0.6463,0.6471,0.6527,0.6543,0.6514,0.6612,0.6586,0.6593,0.66,0.6608,0.6615,0.6611,0.6494,0,0,0,0,0,0.6268,0.6304,0.633,0.6379,0.6392,0.6409,0.643,0.6433,0.6461,0.6473,0.6493,0.6522,0.656,0.6585,0.6621,0.6685,0.6693,0.6714,0.672,0.6725,0.6732,0.677,0.678,0.6674,0.6674,0.6674,0,0,0.6291,0.6313,0.6335,0.6383,0.6404,0.6442,0.6418,0.6459,0.6488,0.6479,0.6533,0.6549,0.6582,0.6642,0.667,0.6658,0.6763,0.6731,0.6735,0.6739,0.6775,0.6785,0.6794,0.6677,0.6676,0.6676,0,0,0.6353,0.6372,0.6416,0.6438,0.647,0.6481,0.6491,0.6522,0.6533,0.6586,0.6581,0.6617,0.6681,0.6705,0.6726,0.6799,0.6794,0.6811,0.6846,0.6882,0.6891,0.6898,0.6927,0.6936,0.6817,0.6817,0.6817,0,0.6378,0.6434,0.6439,0.6481,0.6504,0.6497,0.6543,0.6564,0.6607,0.6623,0.6608,0.669,0.6712,0.6779,0.6797,0.6813,0.6828,0.6807,0.6889,0.6897,0.6904,0.6931,0.6941,0.6819,0.6819,0.6818,0.6818,0,0.6464,0.6503,0.6535,0.6576,0.6602,0.6646,0.6659,0.6685,0.6687,0.67,0.6756,0.6781,0.6824,0.684,0.6841,0.6908,0.6899,0.6887,0.6861,0.6916,0.6941,0.6951,0.6822,0.6821,0.682,0.682,0,0,0.6539,0.6584,0.6595,0.6615,0.6651,0.6682,0.6726,0.6767,0.679,0.682,0.6859,0.6915,0.6904,0.6928,0.6932,0.6964,0.7023,0.6948,0.6948,0.6962,0.7101,0.7111,0.7123,0.7019,0.7021,0.7023,0.7099,0,0.6606,0.6683,0.669,0.676,0.6798,0.6793,0.6832,0.6859,0.6873,0.6908,0.6924,0.6964,0.6945,0.696,0.6991,0.7009,0.7051,0.7003,0.7058,0.7059,0.7051,0.7136,0.7147,0.7217,0.7108,0.711,0.7111,0,0.6694,0.6726,0.68,0.6833,0.6849,0.6883,0.6923,0.6956,0.6987,0.6995,0.7023,0.7023,0.7071,0.7042,0.711,0.7077,0.71,0.7112,0.7115,0.7122,0.709,0.7147,0.7239,0.7251,0.7127,0.7125,0.7124,0,0.6744,0.6806,0.6859,0.6876,0.6914,0.6939,0.6957,0.6987,0.7011,0.7046,0.7063,0.7102,0.7125,0.7156,0.7169,0.7146,0.7236,0.7208,0.7246,0.7246,0.7266,0.7265,0.7365,0.7278,0.7278,0.7277,0.7277,0,0.6818,0.6864,0.6882,0.6915,0.6967,0.6975,0.7027,0.7044,0.707,0.7108,0.7106,0.7141,0.7154,0.7192,0.7202,0.7258,0.7267,0.7276,0.7279,0.7278,0.7277,0.7294,0.729,0.728,0.7279,0.7279,0.7278,0,0.6883,0.6897,0.6955,0.6987,0.6996,0.7033,0.7062,0.7094,0.7108,0.7155,0.7167,0.7188,0.7233,0.7248,0.7302,0.7309,0.7375,0.7372,0.7364,0.7365,0.7403,0.74,0.7519,0.7536,0.7435,0.7436,0.7437,0,0.6931,0.6966,0.7002,0.7027,0.7045,0.7084,0.711,0.712,0.7147,0.7187,0.7215,0.7259,0.7295,0.7368,0.7389,0.7431,0.7431,0.747,0.7437,0.7435,0.7434,0.7432,0.7437,0.7476,0.7477,0.7478,0.7479,0,0.7014,0.702,0.7056,0.7095,0.7125,0.7157,0.7188,0.7208,0.7223,0.7254,0.7299,0.7327,0.7383,0.7428,0.7471,0.7491,0.7489,0.7489,0.75,0.75,0.7495,0.75,0.7382,0.7486,0.7485,0.7485,0.7485,0.7484,0.7073,0.7105,0.7136,0.7177,0.7201,0.723,0.7263,0.7281,0.7319,0.7365,0.7369,0.7419,0.7452,0.751,0.7531,0.7572,0.7561,0.7577,0.7581,0.7586,0.759,0.7487,0.7579,0.7579,0.7579,0.7579,0.7579,0,0.7158,0.7178,0.7216,0.7259,0.7292,0.7285,0.7319,0.7348,0.7392,0.7422,0.7458,0.7512,0.7556,0.7581,0.7625,0.7653,0.7653,0.7665,0.7663,0.7669,0.7595,0.7582,0.7664,0.7664,0.7664,0.7664,0.7664,0.7664,0.7206,0.7261,0.727,0.7338,0.7358,0.7406,0.7426,0.7454,0.7479,0.7539,0.7575,0.7591,0.762,0.7667,0.7708,0.7714,0.7732,0.7745,0.775,0.7682,0.7673,0.7665,0.7653,0.7748,0.7748,0.782,0.7821,0.7822]}]]